VK3BKO-13 Weather Reports


Display with metric or nautical units.
time (UTC)temp
F
wind
direction
speed
MPH
gust
MPH
rain 1hr
in
rain 24hr
in
rain mn
in
humidity
%
barometer
mb
20260504060203 65 2 6.0 10.0 0.00 0.00 0.00 56 1008.2
20260504050204 67 341 8.0 10.0 0.00 0.00 0.00 52 1008.2
20260504044704 67 330 5.0 8.0 0.00 0.00 0.00 52 1008.2
20260504043203 67 357 7.0 10.0 0.00 0.00 0.00 52 1008.2
20260504041704 67 54 10.0 15.0 0.00 0.00 0.00 52 1008.5
20260504040204 67 335 9.0 11.0 0.00 0.00 0.00 51 1008.2
20260504034704 67 298 8.0 10.0 0.00 0.00 0.00 51 1008.5
20260504033204 67 300 7.0 10.0 0.00 0.00 0.00 51 1008.8
20260504031704 67 41 8.0 10.0 0.00 0.00 0.00 52 1008.8
20260504030204 66 346 10.0 15.0 0.00 0.00 0.00 52 1009.2
20260504024704 67 338 6.0 8.0 0.00 0.00 0.00 53 1009.5
20260504023203 67 354 7.0 11.0 0.00 0.00 0.00 53 1009.2
20260504021704 64 321 11.0 16.0 0.00 0.00 0.00 57 1009.5
20260504020204 67 347 6.0 8.0 0.00 0.00 0.00 56 1009.9
20260504014704 66 0 9.0 12.0 0.00 0.00 0.00 58 1009.9
20260504013204 66 355 12.0 15.0 0.00 0.00 0.00 56 1009.9
20260504011704 66 59 10.0 15.0 0.00 0.00 0.00 58 1009.9
20260504010204 65 336 4.0 8.0 0.00 0.00 0.00 60 1010.2
20260504004704 63 42 3.0 4.0 0.00 0.00 0.00 63 1010.2
20260504003204 65 12 7.0 9.0 0.00 0.00 0.00 61 1010.5
20260504001704 65 336 8.0 11.0 0.00 0.00 0.00 61 1010.5
20260504000204 64 342 5.0 7.0 0.00 0.00 0.00 62 1010.2
20260503234704 64 294 5.0 8.0 0.00 0.00 0.00 62 1010.5
20260503233204 63 354 7.0 9.0 0.00 0.00 0.00 62 1010.5
20260503231703 62 342 5.0 7.0 0.00 0.00 0.00 66 1010.5
20260503230203 61 7 3.0 6.0 0.00 0.00 0.00 67 1010.5
20260503224703 61 17 4.0 9.0 0.00 0.00 0.00 68 1010.5
20260503223203 60 346 2.0 3.0 0.00 0.00 0.00 69 1010.9
20260503221703 60 306 4.0 6.0 0.00 0.00 0.00 69 1010.9
20260503220203 59 1 4.0 6.0 0.00 0.00 0.00 70 1010.9
20260503214703 58 333 6.0 8.0 0.00 0.00 0.00 70 1010.9
20260503213203 58 6 3.0 4.0 0.00 0.00 0.00 71 1010.5
20260503211704 58 337 6.0 8.0 0.00 0.00 0.00 71 1010.5
20260503210204 58 358 2.0 2.0 0.00 0.00 0.00 71 1010.5
20260503204704 57 355 4.0 4.0 0.00 0.00 0.00 73 1010.5
20260503203203 56 319 3.0 4.0 0.00 0.00 0.00 74 1010.2
20260503201704 56 338 1.0 2.0 0.00 0.00 0.00 74 1010.2
20260503200204 57 352 2.0 3.0 0.00 0.00 0.00 73 1010.5
20260503194704 57 346 1.0 2.0 0.00 0.00 0.00 73 1010.2
20260503193204 56 344 3.0 4.0 0.00 0.00 0.00 74 1010.5
20260503191703 56 354 2.0 2.0 0.00 0.00 0.00 74 1010.9
20260503190203 57 343 4.0 6.0 0.00 0.00 0.00 74 1010.9
20260503184704 57 34 4.0 6.0 0.00 0.00 0.00 75 1010.9
20260503183204 57 340 0.0 0.0 0.00 0.00 0.00 76 1010.9
20260503181703 56 353 5.0 7.0 0.00 0.00 0.00 78 1010.9
20260503180203 56 352 3.0 3.0 0.00 0.00 0.00 79 1011.2
20260503174703 56 344 3.0 3.0 0.00 0.00 0.00 79 1011.2
20260503173203 56 359 1.0 2.0 0.00 0.00 0.00 79 1011.5
20260503171704 56 327 3.0 4.0 0.00 0.00 0.00 80 1011.2
20260503170204 56 0 3.0 3.0 0.00 0.00 0.00 79 1011.5
20260503160203 56 334 2.0 2.0 0.00 0.00 0.00 80 1011.5
20260503150204 56 11 2.0 3.0 0.00 0.00 0.00 80 1011.5
20260503140204 58 53 2.0 2.0 0.00 0.00 0.00 79 1011.9
20260503130203 58 329 3.0 3.0 0.00 0.00 0.50 79 1011.9
20260503120204 59 352 2.0 3.0 0.00 0.00 0.50 76 1012.2
20260503110204 58 348 1.0 1.0 0.00 0.00 0.50 77 1012.2
20260503100204 58 347 2.0 2.0 0.00 0.00 0.50 78 1012.2
20260503090203 58 356 1.0 1.0 0.00 0.00 0.50 79 1011.9
20260503080204 59 335 0.0 0.0 0.00 0.00 0.50 85 1010.5
20260503071703 63 323 2.0 3.0 0.00 0.00 0.50 78 1009.9
20260503070203 64 324 4.0 4.0 0.00 0.00 0.50 77 1009.9